Location: El Águila
(10.4167°N, 66.7167°W)
Time: 04:16:32
(UTC+00:00)

NOAA 6 - Pass Details

Date: 02 October 2022
Orbit: 771 x 787 km, 98.7° (Epoch: 26 November)

Event Time Altitude Azimuth Distance (km) Brightness Sun altitude
Rises 22:32:29 0° 166° (SSE) 3,239 7.1 -4.7°
Reaches altitude 10° 22:34:47 10° 166° (SSE) 2,314 6.4 -5.3°
Maximum altitude 22:39:53 85° 79° (E) 781 4.0 -6.5°
Drops below altitude 10° 22:45:01 10° 349° (N) 2,323 6.6 -7.8°
Sets 22:47:20 0° 349° (N) 3,253 7.4 -8.4°
